Regional Weather Roundup
Issued by NWS Cleveland, OH

Home | Current Version | Previous Version | Graphics & Text | Print | Product List | Glossary On
Versions: 1 2 3 4 5 6 7 8 9 10 11 12 13 14 15 16 17 18 19 20 21 22 23 24 25 26 27 28 29 30 31 32 33 34 35 36 37 38 39 40 41 42 43 44 45 46 47 48 49 50
000
ASUS41 KCLE 241810
RWRCLE
OHIO REGIONAL WEATHER ROUNDUP
NATIONAL WEATHER SERVICE WILMINGTON, OH
200 PM EDT SUN MAY 24 2015

NOTE: "FAIR" INDICATES FEW OR NO CLOUDS BELOW 12,000 FEET WITH NO
SIGNIFICANT WEATHER AND/OR OBSTRUCTIONS TO VISIBILITY.

OHZ001>008-015>018-024>027-034-035-043-044-241900-
   NORTHWEST OHIO

CITY           SKY/WX    TMP DP  RH WIND       PRES   REMARKS
DEFIANCE       CLOUDY    78  54  43 S9        30.20F
FINDLAY        PTSUNNY   80  53  39 S10       30.20F
TOLEDO EXPRESS CLOUDY    79  51  37 S7        30.21F
TOLEDO EXEC    CLOUDY    80  49  33 SW10      30.22F
LIMA           PTSUNNY   80  55  42 SW8G20    30.22F
$$

OHZ009>014-019>023-028>033-038-089-241900-
   NORTHEAST OHIO

CITY           SKY/WX    TMP DP  RH WIND       PRES   REMARKS
CLE-HOPKINS    MOSUNNY   82  45  27 SW9       30.26F
CLE-LAKEFRONT  PTSUNNY   79  49  34 VRB3      30.23F
CUY CO. ARPT   PTSUNNY   81  50  34 SW12      30.27F
LORAIN-ELYRIA  MOSUNNY   79  40  24 S12G23    30.25F
ASHTABULA      PTSUNNY   78  48  34 W9        30.28F
AKRON-CANTON   MOSUNNY   81  41  24 SW15      30.28F
WOOSTER        MOSUNNY   80  39  23 VRB7      30.28F
MANSFIELD      PTSUNNY   78  49  35 S12G20    30.27F
YOUNGSTOWN     MOSUNNY   78  46  32 SW9G16    30.29F
$$

OHZ042-051>053-060>062-070>072-077>081-241900-
  SOUTHWEST OHIO

CITY           SKY/WX    TMP DP  RH WIND       PRES   REMARKS
CINC-COVINGTON PTSUNNY   81  55  40 S12G17    30.23F
CINC-LUNKEN    SUNNY     82  54  37 MISG      30.22F
HAMILTON       SUNNY     83  55  38 VRB6      30.22F
DAYTON         PTSUNNY   81  53  37 SW12      30.24F
WRIGHT-PAT AFB MOSUNNY   81  53  37 SW9       30.23F
DAYTON GENERAL MOSUNNY   80  54  40 S14       30.22F
WILMINGTON     MOSUNNY   81  49  32 S9        30.24F
$$

OHZ036-037-039>041-045>050-054>059-063>069-073>076-082>088-241900-
  CENTRAL AND SOUTHEAST OHIO

CITY           SKY/WX    TMP DP  RH WIND       PRES   REMARKS
COLUMBUS       PTSUNNY   80  52  37 VRB6      30.24F
OSU AIRPORT    PTSUNNY   80  51  36 SW6       30.24F
BOLTON FIELD   PTSUNNY   81  52  36 S7G16     30.24F
RICKENBACK AFB PTSUNNY   80  54  40 S10       30.23F
NEWARK         MOSUNNY   80  52  37 MISG      30.25F
MARION         MOSUNNY   80  51  36 S16G22    30.24F
LANCASTER      MOSUNNY   82  51  34 S7        30.26F
ZANESVILLE     PTSUNNY   78  46  32 NW3       30.27F
NEW PHILLY     MOSUNNY   81  44  27 SW6       30.28F
$$



USA.gov is the U.S. government's official web portal to all federal, state and local government web resources and services.